Regional Weather Roundup
Issued by NWS

Home | Current Version | Previous Version | Graphics & Text | Print | Product List | Glossary On
Versions: 1 2 3 4 5 6 7 8 9 10 11 12 13 14 15 16 17 18 19 20 21 22 23 24 25 26 27
000
ASUS45 KBOU 100407
RWRCO

WEATHER ROUNDUP FOR COLORADO
NATIONAL WEATHER SERVICE DENVER/BOULDER CO
900 PM MST FRI DEC 09 2016

NOTE: "FAIR" INDICATES FEW OR NO CLOUDS BELOW 12000 FEET WITH NO
SIGNIFICANT WEATHER AND/OR OBSTRUCTIONS TO VISIBILITY.

COZ001>005-013-030-031-100500-
...NORTHWEST COLORADO...

CITY           SKY/WX    TMP DP  RH WIND       PRES   REMARKS
CRAIG          FAIR      29  25  85 VRB5      30.14F WCI  24
HAYDEN         FAIR      30  25  80 E7        30.13S WCI  23
MEEKER         CLOUDY    37  24  59 W9        30.16F
MOUNT WERNER   NOT AVBL
STEAMBOAT SPGS CLOUDY    26  24  96 CALM      30.15S
WALDEN           N/A     34  23  64 S10       30.14R WCI  26
$$

COZ006>008-011-100500-
...WEST CENTRAL VALLEYS...

CITY           SKY/WX    TMP DP  RH WIND       PRES   REMARKS
GRAND JUNCTION FAIR      26  19  74 E5        30.24F WCI  20
MONTROSE       FAIR      25  19  78 S7        30.27S WCI  17
EAGLE          CLOUDY    29  26  89 E6        30.22F WCI  23
RIFLE          FAIR      29  22  75 CALM      30.24F
DELTA          FAIR      28  19  69 CALM      30.26F
NUCLA          FAIR      32  23  69 E8        30.29S WCI  25
$$

COZ017>023-064>068-100500-
...SOUTHWEST COLORADO...

CITY           SKY/WX    TMP DP  RH WIND       PRES   REMARKS
DURANGO        FAIR      23  16  74 CALM      30.28S
CORTEZ         FAIR      26  23  88 E5        30.27F WCI  20
PAGOSA SPRINGS FAIR      24  19  80 CALM      30.31S
TELLURIDE      NOT AVBL
WOLF CREEK PAS FAIR      18  18 100 SW12      30.37S WCI   5
$$

COZ009-010-012-014-032>034-037-058>063-100500-
...CENTRAL COLORADO...

CITY           SKY/WX    TMP DP  RH WIND       PRES   REMARKS
ASPEN          CLOUDY    29  26  89 S3        30.21S
BUENA VISTA    FAIR      37  17  46 W6        30.16S
COPPER MTN     LGT SNOW  25  16  68 MISG      30.20S VSB 1
BERTHOUD PASS  LGT SNOW  16   5  62 NW32G40   30.13S WCI  -5
COTTONWOOD PAS FAIR      34  18  51 W15G38    30.15F WCI  24
GUNNISON       FAIR      18  15  88 CALM      30.28R
KREMMLING      MOCLDY    37  28  70 SW10G18   30.16F
LEADVILLE      CLOUDY    29  16  58 N10G17    30.20R WCI  20
MONARCH PASS   MOCLDY    21  18  86 W48G56    30.33R WCI  -1
SALIDA         FAIR      41  19  40 SW17      30.22S
SUNLIGHT       MOCLDY    21  19  93 SW18G25   30.26F WCI   6
WILKERSON PASS MOCLDY    23  18  80 SW16G23   30.18F WCI  10
$$

COZ069>075-100500-
...SAN LUIS VALLEY/SANGRE DE CRISTO MOUNTAINS...

CITY           SKY/WX    TMP DP  RH WIND       PRES   REMARKS
ALAMOSA        FAIR      20  14  77 N5        30.24S WCI  13
LA VETA PASS   FAIR      27  19  74 NE14G21   30.21S WCI  15
SAGUACHE       FAIR      19  14  79 CALM      30.25S
$$

COZ035-036-038>040-100500-
...NORTHERN COLORADO FRONT RANGE...

CITY           SKY/WX    TMP DP  RH WIND       PRES   REMARKS
DENVER INTL AP MOCLDY    27  22  81 CALM      30.08F
DMNS CITY PARK   N/A     29  22  74 N3        30.10S
AURORA         MOCLDY    28  24  85 NW3       30.08F
FRONT RANGE AP MOCLDY    32  27  80 NE6       30.09F WCI  26
ERIE MUNI ARPT MOCLDY    24  21  86 NW5       30.12R WCI  19
BOULDER MUN AP CLOUDY    28  21  74 NE3       30.10F
CENTENNIAL     MOCLDY    29  25  85 CALM      30.08F
BROOMFIELD     MOCLDY    28  21  74 N9        30.09F WCI  20
FORT COLLINS   FAIR      27  19  74 NE5       30.13S WCI  21
LONGMONT       CLOUDY    28  21  75 NE7       30.13S WCI  21
$$

COZ041-046-047-076>085-087-088-100500-
...PIKES PEAK/PALMER DIVIDE AND SOUTHERN FOOTHILLS...

CITY           SKY/WX    TMP DP  RH WIND       PRES   REMARKS
COLO. SPRINGS  FAIR      32  18  56 E5        30.11F WCI  27
A. F. ACADEMY  FAIR      27  21  79 CALM      30.09F
SCHRIEVER AFB  NOT AVBL
ELLICOTT       LGT RAIN N/A N/A N/A E12       30.10F
FALCON         FAIR      29  18  62 SE8       30.12F WCI  22
FORT CARSON    FAIR      24  13  64 NE2       30.11R
LIMON          MOCLDY    21  15  78 CALM      30.14F
MONUMENT HILL  FAIR      32  21  64 SW6       30.09F WCI  26
TRINIDAD       FAIR      33  16  49 NW9       30.12S WCI  25
$$

COZ042>045-048>051-090-091-100500-
...NORTHEAST COLORADO...

CITY           SKY/WX    TMP DP  RH WIND       PRES   REMARKS
GREELEY ARPT   FAIR      22  18  85 N7        30.16S WCI  13
AKRON          MOCLDY    22  15  75 SE15      30.12F WCI   9
BURLINGTON     FAIR      22  16  78 S8        30.18R WCI  12
WRAY           CLOUDY    25  19  80 CALM      30.20S
STERLING       CLOUDY    23  18  80 NE5       30.17S WCI  17
HOLYOKE        FAIR      25  19  80 NE7       30.21S WCI  17
FORT MORGAN    MOCLDY    22  17  79 NE7       30.16R WCI  14
$$

COZ086-089-092>099-100500-
...SOUTHEAST COLORADO...

CITY           SKY/WX    TMP DP  RH WIND       PRES   REMARKS
PUEBLO         FAIR      26  12  55 CALM      30.14R
LA JUNTA       FAIR      26  12  55 N7        30.13S WCI  18
LAMAR          FAIR      26  18  71 E9        30.14F WCI  17
SPRINGFIELD      N/A     29  22  75 S9        30.14F WCI  20
$$




USA.gov is the U.S. government's official web portal to all federal, state and local government web resources and services.